Total_Precipitation_Accumulation
0.00 0.00 0.00 0.00 0.00 0.00 0.00 0.00 0.00 0.00 0.00 0.00 0.00 0.00 0.00 0.00 0.00 0.00 0.00 0.00 0.00 0.00 0.00 0.00 0.00 0.00 0.00 0.00 0.00 0.00 0.00 0.00 0.00 0.01 0.04 0.08 0.09 0.12
0.00 0.00 0.00 0.00 0.00 0.00 0.00 0.00 0.00 0.00 0.00 0.00 0.00 0.00 0.00 0.00 0.00 0.00 0.00 0.00 0.00 0.00 0.00 0.00 0.00 0.00 0.00 0.00 0.00 0.00 0.00 0.01 0.01 0.01 0.02 0.04 0.06 0.08
0.00 0.00 0.00 0.00 0.00 0.00 0.00 0.00 0.00 0.00 0.00 0.00 0.00 0.00 0.00 0.00 0.00 0.00 0.00 0.00 0.00 0.00 0.00 0.00 0.00 0.00 0.00 0.00 0.00 0.00 0.01 0.01 0.02 0.03 0.04 0.07 0.10 0.09
0.00 0.00 0.00 0.00 0.00 0.00 0.00 0.00 0.00 0.00 0.00 0.00 0.00 0.00 0.00 0.00 0.00 0.00 0.00 0.00 0.00 0.00 0.00 0.00 0.00 0.00 0.00 0.00 0.01 0.01 0.02 0.03 0.06 0.07 0.06 0.05 0.05 0.07
0.00 0.00 0.00 0.00 0.00 0.00 0.00 0.00 0.00 0.00 0.00 0.01 0.00 0.00 0.00 0.00 0.00 0.00 0.00 0.00 0.00 0.00 0.00 0.00 0.00 0.00 0.01 0.01 0.02 0.04 0.05 0.04 0.02 0.02 0.02 0.02 0.02 0.03
0.00 0.00 0.00 0.00 0.00 0.00 0.00 0.00 0.00 0.00 0.00 0.00 0.03 0.03 0.01 0.01 0.01 0.01 0.00 0.00 0.00 0.00 0.00 0.00 0.00 0.00 0.01 0.02 0.02 0.01 0.00 0.00 0.01 0.02 0.04 0.04 0.03 0.03
0.00 0.00 0.00 0.00 0.00 0.00 0.00 0.00 0.00 0.00 0.03 0.09 0.08 0.05 0.03 0.01 0.00 0.00 0.00 0.00 0.00 0.00 0.00 0.00 0.00 0.00 0.00 0.00 0.00 0.00 0.01 0.04 0.05 0.05 0.05 0.03 0.02 0.02
0.00 0.00 0.00 0.00 0.00 0.00 0.00 0.00 0.02 0.04 0.08 0.12 0.08 0.04 0.01 0.00 0.00 0.01 0.02 0.03 0.04 0.00 0.00 0.00 0.00 0.00 0.00 0.00 0.01 0.02 0.02 0.02 0.02 0.03 0.02 0.01 0.00 0.01
0.00 0.00 0.00 0.00 0.00 0.00 0.00 0.01 0.05 0.10 0.05 0.01 0.01 0.00 0.01 0.01 0.06 0.07 0.05 0.04 0.01 0.00 0.01 0.02 0.00 0.01 0.01 0.01 0.00 0.01 0.02 0.02 0.02 0.03 0.03 0.02 0.01 0.01
0.00 0.00 0.00 0.00 0.00 0.01 0.01 0.04 0.03 0.01 0.00 0.00 0.00 0.01 0.01 0.02 0.02 0.03 0.01 0.01 0.01 0.00 0.01 0.04 0.00 0.00 0.00 0.00 0.00 0.01 0.01 0.05 0.09 0.10 0.06 0.03 0.01 0.01
0.00 0.00 0.01 0.01 0.00 0.03 0.03 0.08 0.02 0.00 0.00 0.00 0.03 0.02 0.00 0.00 0.00 0.01 0.04 0.05 0.03 0.00 0.00 0.01 0.00 0.00 0.00 0.00 0.00 0.01 0.04 0.05 0.02 0.01 0.00 0.01 0.00 0.00
0.00 0.00 0.00 0.01 0.01 0.07 0.06 0.01 0.00 0.00 0.01 0.02 0.00 0.00 0.00 0.00 0.00 0.01 0.03 0.12 0.06 0.04 0.00 0.02 0.03 0.01 0.06 0.01 0.00 0.01 0.00 0.00 0.01 0.01 0.01 0.00 0.01 0.00
0.00 0.00 0.00 0.01 0.07 0.08 0.01 0.00 0.00 0.01 0.00 0.00 0.00 0.00 0.00 0.00 0.00 0.00 0.01 0.08 0.16 0.11 0.01 0.07 0.11 0.02 0.04 0.02 0.00 0.00 0.00 0.00 0.02 0.05 0.08 0.09 0.04 0.02
0.01 0.00 0.01 0.06 0.06 0.00 0.00 0.00 0.00 0.00 0.00 0.00 0.00 0.00 0.01 0.00 0.00 0.00 0.00 0.01 0.03 0.10 0.04 0.08 0.18 0.07 0.11 0.07 0.01 0.00 0.00 0.01 0.13 0.25 0.31 0.27 0.18 0.09
0.01 0.02 0.05 0.02 0.00 0.00 0.00 0.00 0.00 0.00 0.00 0.02 0.02 0.01 0.01 0.01 0.01 0.01 0.01 0.00 0.01 0.01 0.03 0.08 0.13 0.09 0.06 0.02 0.01 0.01 0.04 0.04 0.18 0.34 0.21 0.10 0.10 0.10
0.02 0.07 0.01 0.00 0.00 0.00 0.00 0.00 0.00 0.00 0.01 0.03 0.04 0.02 0.01 0.01 0.02 0.03 0.06 0.02 0.05 0.02 0.02 0.03 0.06 0.05 0.02 0.01 0.03 0.03 0.07 0.10 0.09 0.14 0.11 0.12 0.10 0.09
0.02 0.00 0.00 0.00 0.00 0.00 0.00 0.00 0.00 0.00 0.02 0.03 0.04 0.03 0.02 0.02 0.02 0.01 0.05 0.07 0.09 0.06 0.04 0.02 0.01 0.02 0.01 0.05 0.05 0.06 0.10 0.10 0.13 0.18 0.20 0.17 0.25 0.31
0.00 0.00 0.00 0.00 0.00 0.00 0.00 0.00 0.00 0.01 0.03 0.04 0.03 0.04 0.05 0.05 0.04 0.03 0.04 0.08 0.09 0.07 0.08 0.06 0.04 0.01 0.02 0.04 0.08 0.11 0.12 0.13 0.17 0.19 0.23 0.14 0.29 0.54
0.00 0.00 0.00 0.00 0.00 0.00 0.00 0.02 0.03 0.03 0.04 0.05 0.05 0.05 0.06 0.04 0.04 0.04 0.05 0.05 0.05 0.06 0.07 0.10 0.06 0.05 0.04 0.04 0.06 0.17 0.14 0.16 0.19 0.16 0.17 0.15 0.23 0.43
0.00 0.00 0.00 0.00 0.00 0.01 0.02 0.04 0.04 0.03 0.02 0.03 0.04 0.03 0.03 0.04 0.04 0.05 0.05 0.06 0.05 0.05 0.06 0.07 0.04 0.06 0.08 0.08 0.08 0.23 0.22 0.16 0.10 0.12 0.17 0.12 0.23 0.28
0.01 0.01 0.00 0.00 0.01 0.02 0.04 0.05 0.05 0.05 0.05 0.04 0.02 0.02 0.03 0.05 0.04 0.05 0.05 0.04 0.05 0.04 0.04 0.05 0.04 0.06 0.08 0.05 0.08 0.12 0.23 0.22 0.10 0.06 0.07 0.05 0.11 0.09
0.00 0.00 0.00 0.00 0.02 0.05 0.06 0.05 0.04 0.01 0.01 0.02 0.02 0.03 0.02 0.05 0.06 0.04 0.04 0.04 0.03 0.05 0.04 0.01 0.00 0.01 0.05 0.06 0.07 0.09 0.10 0.11 0.09 0.06 0.05 0.04 0.04 0.11
0.00 0.00 0.00 0.01 0.04 0.04 0.04 0.03 0.02 0.01 0.01 0.03 0.04 0.03 0.04 0.06 0.04 0.03 0.03 0.03 0.03 0.03 0.02 0.02 0.00 0.00 0.01 0.04 0.04 0.05 0.04 0.04 0.03 0.01 0.06 0.05 0.05 0.07